[[{"header":{"parameterUnit":"m.s-1","parameterCategory":1,"la1":30.2991,"la2":30.254,"lo1":-89.0895,"lo2":-89.0444,"dy":0.0017,"dx":0.0017,"nx":28,"ny":28,"refTime":"2023-09-27T03:00:00:Z","depth":0,"parameterNumber":2,"parameterNumberName":"U-component_of_WINDS"},"data":[0,0,0,0,0,0,0,0,0,0,0,0,0,0,0,0,0,0,0,0,0,0,0,0,0,0,0,0,0,0,0,0,0,0,0,0,0,0,0,0,0,0,0,0,0,0,0,0,0,0,0,0,0,0,0,0,0,0,-4.1251,-4.1253,0,-4.1351,-4.1352,-4.1353,-4.13,-4.1297,-4.1294,-4.1292,-4.1393,-4.1398,-4.1403,0,0,0,0,0,0,0,0,0,0,0,0,0,-4.1015,-4.102,-4.1251,-4.1253,-4.1254,-4.135,-4.1352,-4.1353,-4.13,-4.1297,-4.1293,-4.129,-4.1391,-4.1397,-4.1403,0,0,0,0,0,0,0,0,0,0,0,0,0,-4.1116,-4.1021,-4.1251,-4.1239,-4.1239,-4.135,-4.1352,-4.1353,-4.1301,-4.1297,-4.1293,-4.1289,-4.1389,-4.1397,-4.1404,-4.1533,0,0,-4.1428,-4.1431,0,0,0,0,0,0,0,0,-4.1111,-4.1125,-4.124,-4.124,-4.124,-4.1309,-4.1305,-4.1414,-4.1302,-4.1277,-4.1292,-4.1287,-4.1368,-4.1377,-4.1405,-4.1538,-4.1542,-4.1429,-4.1433,-4.1437,-4.1439,0,0,0,0,0,0,0,-4.1104,-4.1121,-4.1291,-4.1241,-4.1242,-4.1228,-4.1238,-4.1326,-4.1344,-4.1279,-4.1275,-4.1288,-4.1367,-4.1397,-4.1407,-4.1543,-4.1428,-4.1435,-4.144,-4.1443,-4.1787,-4.1791,0,0,0,0,0,0,-4.1098,-4.1115,-4.1287,-4.1293,-4.1164,-4.1236,-4.1247,-4.1291,-4.1343,-4.1347,-4.1291,-4.1285,-4.1386,-4.1398,-4.141,-4.1564,-4.1437,-4.1444,-4.1448,-4.1782,-4.1788,-4.1793,0,0,0,0,0,0,-4.1093,-4.1114,-4.1283,-4.1203,-4.1224,-4.1244,-4.1294,-4.1295,-4.1325,-4.1352,-4.1355,-4.1319,-4.1383,-4.1399,-4.1503,-4.1567,-4.1448,-4.1455,-4.1777,-4.1784,-4.179,-4.1873,0,0,0,0,0,0,-4.1086,-4.1112,-4.1161,-4.1205,-4.1229,-4.1375,-4.1298,-4.13,-4.1338,-4.1331,-4.1378,-4.1382,-4.1381,-4.1491,-4.151,-4.1575,-4.1461,-4.1771,-4.178,-4.1788,-4.1865,-4.1882,-4.1897,0,0,0,0,0,-4.1078,-4.1181,-4.1164,-4.1185,-4.1291,-4.1379,-4.1392,-4.1389,-4.1344,-4.1393,-4.1411,-4.1381,-4.1557,-4.1502,-4.1523,-4.1592,-4.1767,-4.1778,-4.1787,-4.1858,-4.1879,-4.1896,0,0,0,0,0,0,-4.1144,-4.1186,-4.1168,-4.1288,-4.1331,-4.137,-4.1432,-4.1411,-4.1467,-4.1458,-4.1451,-4.1462,-4.157,-4.1591,-4.153,-4.1719,-4.1655,-4.167,-4.1701,-4.1721,-4.1737,-4.173,-4.1467,0,0,0,0,0,-4.1173,-4.1241,-4.1274,-4.1377,-4.1399,-4.1412,-4.145,-4.1444,-4.1487,-4.1505,-4.153,-4.1573,-4.1638,-4.1681,-4.1742,-4.1868,-4.1877,-4.1925,-4.1941,-4.1954,-4.1966,-4.2035,-4.2056,-4.1825,-4.1825,-4.1825,0,0,-4.1233,-4.1264,-4.1308,-4.1391,-4.1423,-4.1493,-4.1427,-4.1505,-4.1557,-4.1516,-4.1616,-4.1636,-4.1684,-4.1799,-4.1851,-4.182,-4.2032,-4.1966,-4.1976,-4.1982,-4.2047,-4.2069,-4.2088,-4.1832,-4.1831,-4.183,0,0,-4.1378,-4.1408,-4.1497,-4.1531,-4.158,-4.1588,-4.1609,-4.1652,-4.1664,-4.1763,-4.1734,-4.1796,-4.1908,-4.1943,-4.1975,-4.2134,-4.2108,-4.2154,-4.2237,-4.2303,-4.2321,-4.2337,-4.2394,-4.2414,-4.2166,-4.2167,-4.2167,0,-4.1446,-4.1551,-4.1546,-4.1626,-4.1663,-4.1629,-4.1719,-4.1752,-4.1819,-4.1845,-4.1809,-4.1949,-4.1978,-4.2101,-4.214,-4.2167,-4.2191,-4.2148,-4.2319,-4.2335,-4.235,-4.2404,-4.2425,-4.2172,-4.2171,-4.2171,-4.217,0,-4.1633,-4.1706,-4.1772,-4.1838,-4.1882,-4.1967,-4.1974,-4.202,-4.201,-4.2022,-4.2123,-4.2158,-4.2225,-4.2254,-4.2245,-4.2376,-4.2355,-4.232,-4.2255,-4.2378,-4.2428,-4.2449,-4.2179,-4.2177,-4.2176,-4.2175,0,0,-4.1823,-4.1884,-4.1908,-4.1937,-4.1989,-4.2046,-4.2128,-4.2194,-4.2234,-4.2281,-4.235,-4.2446,-4.2413,-4.245,-4.2444,-4.2503,-4.2626,-4.246,-4.2461,-4.249,-4.2773,-4.28,-4.2824,-4.2609,-4.2613,-4.2616,-4.2769,0,-4.1972,-4.2117,-4.2114,-4.2249,-4.2317,-4.2285,-4.2357,-4.2397,-4.241,-4.2469,-4.2484,-4.2551,-4.2503,-4.2525,-4.2581,-4.2599,-4.2683,-4.2588,-4.2674,-4.2677,-4.2663,-4.285,-4.2879,-4.3021,-4.2788,-4.2792,-4.2794,0,-4.2165,-4.2218,-4.236,-4.2401,-4.243,-4.2495,-4.2555,-4.2612,-4.2656,-4.2661,-4.2703,-4.2688,-4.2772,-4.2705,-4.282,-4.2756,-4.2791,-4.2805,-4.281,-4.2818,-4.2743,-4.2863,-4.3066,-4.3088,-4.2825,-4.2823,-4.2821,0,-4.2289,-4.2397,-4.2495,-4.2521,-4.2572,-4.2618,-4.2642,-4.2681,-4.2721,-4.2774,-4.28,-4.2861,-4.2895,-4.2943,-4.2945,-4.2897,-4.3062,-4.2995,-4.3069,-4.3069,-4.3106,-4.3104,-4.3318,-4.3128,-4.3128,-4.3127,-4.3127,0,-4.2456,-4.2544,-4.2552,-4.2613,-4.271,-4.2706,-4.2802,-4.2821,-4.2857,-4.2921,-4.2897,-4.2957,-4.2956,-4.3018,-4.302,-4.3115,-4.3131,-4.3137,-4.3137,-4.314,-4.3139,-4.3163,-4.3153,-4.3133,-4.3132,-4.3131,-4.313,0,-4.2612,-4.2621,-4.2727,-4.2766,-4.2778,-4.2848,-4.2881,-4.2939,-4.295,-4.3031,-4.3049,-4.3067,-4.3137,-4.3144,-4.3226,-4.3228,-4.3343,-4.3332,-4.3329,-4.3327,-4.34,-4.3394,-4.3637,-4.3669,-4.3459,-4.3461,-4.3462,0,-4.2718,-4.2785,-4.2832,-4.2873,-4.2899,-4.2965,-4.3005,-4.3003,-4.3047,-4.3101,-4.3153,-4.3221,-4.3276,-4.3391,-4.341,-4.3473,-4.3463,-4.3544,-4.3473,-4.3473,-4.3465,-4.3461,-4.3468,-4.3558,-4.3561,-4.3563,-4.3564,0,-4.2906,-4.2906,-4.2966,-4.3027,-4.3076,-4.3124,-4.3169,-4.3204,-4.3208,-4.3257,-4.333,-4.3372,-4.3456,-4.3524,-4.3586,-4.3609,-4.3588,-4.3587,-4.3607,-4.3611,-4.3606,-4.361,-4.3367,-4.3581,-4.3579,-4.3578,-4.3577,-4.3577,-4.304,-4.3098,-4.314,-4.3207,-4.324,-4.3283,-4.3339,-4.3357,-4.3417,-4.3485,-4.348,-4.356,-4.3602,-4.3682,-4.371,-4.3773,-4.3746,-4.3775,-4.3783,-4.379,-4.3798,-4.3596,-4.3784,-4.3783,-4.3783,-4.3783,-4.3782,0,-4.3226,-4.3251,-4.3313,-4.3377,-4.3429,-4.3404,-4.3452,-4.3498,-4.3569,-4.3609,-4.3664,-4.3747,-4.3813,-4.3838,-4.3902,-4.3947,-4.3939,-4.3964,-4.3961,-4.3967,-4.3818,-4.3794,-4.397,-4.397,-4.397,-4.397,-4.397,-4.397,-4.333,-4.3426,-4.3432,-4.3545,-4.357,-4.3648,-4.3678,-4.3717,-4.3749,-4.3843,-4.3898,-4.3913,-4.3948,-4.4015,-4.4074,-4.408,-4.4105,-4.4134,-4.4136,-4.3996,-4.3978,-4.3959,-4.3937,-4.414,-4.414,-4.4279,-4.4281,-4.4282]},{"header":{"parameterUnit":"m.s-1","parameterCategory":1,"la1":30.2991,"la2":30.254,"lo1":-89.0895,"lo2":-89.0444,"dy":0.0017,"dx":0.0017,"nx":28,"ny":28,"refTime":"2023-09-27T03:00:00:Z","depth":0,"parameterNumber":3,"parameterNumberName":"V-component_of_WINDS"},"data":[0,0,0,0,0,0,0,0,0,0,0,0,0,0,0,0,0,0,0,0,0,0,0,0,0,0,0,0,0,0,0,0,0,0,0,0,0,0,0,0,0,0,0,0,0,0,0,0,0,0,0,0,0,0,0,0,0,0,-3.7642,-3.7642,0,-3.7637,-3.7637,-3.7637,-3.7564,-3.7562,-3.756,-3.7558,-3.7554,-3.7556,-3.7557,0,0,0,0,0,0,0,0,0,0,0,0,0,-3.7587,-3.7589,-3.7642,-3.7642,-3.7642,-3.7637,-3.7637,-3.7637,-3.7564,-3.7562,-3.756,-3.7558,-3.7554,-3.7556,-3.7558,0,0,0,0,0,0,0,0,0,0,0,0,0,-3.76,-3.7589,-3.7642,-3.7605,-3.7601,-3.7637,-3.7637,-3.7637,-3.7565,-3.7562,-3.7559,-3.7556,-3.7553,-3.7556,-3.7558,-3.7629,0,0,-3.7565,-3.7566,0,0,0,0,0,0,0,0,-3.7599,-3.7602,-3.761,-3.7607,-3.7604,-3.7598,-3.7616,-3.7634,-3.7565,-3.7579,-3.7558,-3.7555,-3.7571,-3.7572,-3.7577,-3.7628,-3.7628,-3.7566,-3.7567,-3.7568,-3.7569,0,0,0,0,0,0,0,-3.7598,-3.7602,-3.764,-3.761,-3.7606,-3.7588,-3.7587,-3.7619,-3.7591,-3.7577,-3.7572,-3.7572,-3.7569,-3.7575,-3.7577,-3.7628,-3.7565,-3.7568,-3.7569,-3.757,-3.7735,-3.7738,0,0,0,0,0,0,-3.7603,-3.7601,-3.764,-3.764,-3.7594,-3.7591,-3.759,-3.7603,-3.759,-3.7585,-3.7575,-3.7569,-3.7572,-3.7574,-3.7576,-3.7657,-3.7568,-3.757,-3.7572,-3.7732,-3.7736,-3.7739,0,0,0,0,0,0,-3.7602,-3.7607,-3.764,-3.7619,-3.7622,-3.7595,-3.761,-3.7604,-3.761,-3.7588,-3.7583,-3.7586,-3.757,-3.7573,-3.7616,-3.7656,-3.7571,-3.7574,-3.7729,-3.7734,-3.7738,-3.782,0,0,0,0,0,0,-3.7601,-3.7607,-3.7634,-3.762,-3.7623,-3.768,-3.7613,-3.7606,-3.7614,-3.7607,-3.7598,-3.7593,-3.7568,-3.7612,-3.7618,-3.7658,-3.7576,-3.7725,-3.7731,-3.7736,-3.7814,-3.7827,-3.7838,0,0,0,0,0,-3.7599,-3.7658,-3.7636,-3.7641,-3.7656,-3.7683,-3.7684,-3.7654,-3.7618,-3.7644,-3.763,-3.7594,-3.7651,-3.7617,-3.7623,-3.7664,-3.7723,-3.7729,-3.7736,-3.7808,-3.7824,-3.7838,0,0,0,0,0,0,-3.7678,-3.7655,-3.7631,-3.7687,-3.7687,-3.767,-3.7703,-3.7672,-3.7683,-3.7675,-3.7637,-3.7636,-3.7684,-3.7678,-3.7642,-3.7731,-3.768,-3.7688,-3.7733,-3.7748,-3.776,-3.776,-3.7578,0,0,0,0,0,-3.7702,-3.7725,-3.7704,-3.7756,-3.7757,-3.773,-3.774,-3.7717,-3.7716,-3.7715,-3.7704,-3.7705,-3.7722,-3.7735,-3.775,-3.7812,-3.7809,-3.7843,-3.7855,-3.7865,-3.7873,-3.7904,-3.7919,-3.7761,-3.7761,-3.7761,0,0,-3.7751,-3.7742,-3.7759,-3.7771,-3.7768,-3.7793,-3.7731,-3.776,-3.7777,-3.772,-3.7759,-3.7751,-3.7749,-3.7802,-3.7824,-3.7798,-3.7916,-3.7874,-3.7882,-3.7884,-3.7912,-3.7927,-3.7941,-3.7765,-3.7765,-3.7764,0,0,-3.7854,-3.785,-3.7891,-3.789,-3.7886,-3.7868,-3.7878,-3.7865,-3.7857,-3.7896,-3.7853,-3.7874,-3.7905,-3.7905,-3.7909,-3.801,-3.7977,-3.8016,-3.808,-3.8111,-3.8123,-3.8134,-3.8169,-3.8183,-3.8024,-3.8024,-3.8024,0,-3.7917,-3.7952,-3.7917,-3.7948,-3.7954,-3.7903,-3.7944,-3.7944,-3.7946,-3.7952,-3.7922,-3.796,-3.7955,-3.8006,-3.8031,-3.8036,-3.8046,-3.8017,-3.8124,-3.8135,-3.8144,-3.8177,-3.8191,-3.8029,-3.8028,-3.8028,-3.8027,0,-3.8028,-3.8053,-3.8087,-3.8089,-3.8099,-3.8135,-3.8106,-3.812,-3.8095,-3.808,-3.8119,-3.8111,-3.8123,-3.8134,-3.811,-3.8181,-3.8165,-3.8131,-3.8079,-3.8165,-3.8195,-3.8208,-3.8036,-3.8034,-3.8032,-3.8031,0,0,-3.8182,-3.8162,-3.8176,-3.8175,-3.8167,-3.8185,-3.8219,-3.823,-3.8242,-3.8245,-3.8272,-3.8299,-3.8267,-3.8271,-3.8247,-3.8274,-3.8354,-3.8236,-3.8235,-3.8258,-3.8431,-3.8456,-3.8472,-3.8331,-3.8334,-3.8335,-3.8431,0,-3.828,-3.8336,-3.8305,-3.8365,-3.8387,-3.8337,-3.8366,-3.8364,-3.835,-3.8367,-3.8351,-3.8371,-3.8327,-3.8329,-3.8354,-3.8339,-3.8388,-3.8332,-3.8356,-3.8357,-3.8358,-3.8488,-3.8516,-3.8606,-3.8442,-3.8444,-3.8446,0,-3.8403,-3.841,-3.8472,-3.8457,-3.8465,-3.8492,-3.8499,-3.8515,-3.8511,-3.8499,-3.8504,-3.8473,-3.8504,-3.8453,-3.8495,-3.8458,-3.8466,-3.846,-3.8462,-3.8463,-3.8407,-3.8492,-3.8634,-3.8647,-3.8464,-3.8463,-3.8462,0,-3.8508,-3.8532,-3.8572,-3.8573,-3.8558,-3.8578,-3.8572,-3.8565,-3.8573,-3.858,-3.8584,-3.8594,-3.86,-3.8608,-3.8581,-3.8546,-3.8627,-3.8573,-3.8617,-3.8618,-3.8637,-3.8636,-3.8782,-3.8643,-3.8642,-3.8642,-3.8642,0,-3.8621,-3.8661,-3.8619,-3.8643,-3.8686,-3.865,-3.8693,-3.8682,-3.8676,-3.8698,-3.8656,-3.8677,-3.8639,-3.8656,-3.8635,-3.8673,-3.8676,-3.8667,-3.866,-3.867,-3.8671,-3.8675,-3.8668,-3.8646,-3.8645,-3.8644,-3.8644,0,-3.8746,-3.8719,-3.8759,-3.874,-3.8736,-3.8769,-3.8753,-3.8775,-3.8757,-3.8785,-3.8789,-3.8762,-3.878,-3.8753,-3.8768,-3.8754,-3.8806,-3.879,-3.8807,-3.8803,-3.8848,-3.8844,-3.9001,-3.9019,-3.8869,-3.8871,-3.8872,0,-3.882,-3.8849,-3.8833,-3.8843,-3.884,-3.8858,-3.8866,-3.8831,-3.884,-3.8837,-3.886,-3.8874,-3.8883,-3.8914,-3.8896,-3.8907,-3.8891,-3.8945,-3.8893,-3.8901,-3.8891,-3.889,-3.8892,-3.8956,-3.8958,-3.8959,-3.8961,0,-3.8953,-3.8938,-3.895,-3.8958,-3.8968,-3.8972,-3.8973,-3.8985,-3.8948,-3.8961,-3.8978,-3.8985,-3.9,-3.9014,-3.9021,-3.9015,-3.8982,-3.8977,-3.8988,-3.8998,-3.9007,-3.9002,-3.8836,-3.8974,-3.8973,-3.8972,-3.8971,-3.897,-3.9054,-3.9077,-3.9069,-3.9084,-3.908,-3.9082,-3.9101,-3.9086,-3.9099,-3.9108,-3.9086,-3.9109,-3.9103,-3.9108,-3.9105,-3.9122,-3.9099,-3.9114,-3.9118,-3.9123,-3.913,-3.9004,-3.9123,-3.9123,-3.9123,-3.9122,-3.9122,0,-3.9185,-3.9177,-3.9191,-3.9193,-3.9204,-3.9171,-3.917,-3.9182,-3.9202,-3.9199,-3.9208,-3.9228,-3.9241,-3.9224,-3.9234,-3.9251,-3.9236,-3.9255,-3.9253,-3.9252,-3.915,-3.914,-3.9267,-3.9267,-3.9267,-3.9267,-3.9267,-3.9267,-3.9255,-3.9291,-3.9275,-3.931,-3.9301,-3.9322,-3.9324,-3.9325,-3.9322,-3.9345,-3.9356,-3.9344,-3.9335,-3.9344,-3.9355,-3.9349,-3.9355,-3.9379,-3.9369,-3.9274,-3.926,-3.9246,-3.9236,-3.9381,-3.9381,-3.9469,-3.947,-3.947]}]]